星链-4090 (STARLINK-4090 )

导读

STARLINK-4090(星链-4090)是美国SpaceX星链星座中的v1.5版本卫星,于2022年7月17日发射入轨,属于低轨卫星互联网星座组网卫星。它运行在近地轨道,采用氪工质霍尔推进与激光通信技术,旨在为全球覆盖不足区域提供高速低延迟互联网服务,其成功部署拓展了星链网络的覆盖范围与服务稳定性。

Basic Information
目录编号:
53165
目录名称:
STARLINK-4090
国际标识:
2022-083AK
轨道中心:
EARTH
卫星名称:
星链-4090
卫星全名:
星链-4090 (STARLINK-4090 )
卫星状态:
在轨 (已飞行1510 天)
发射日期:
2022-07-17 UTC
国别 :
美国 (US)
星等 :
--
Orbit Information
数据来源 国际轨道数据
星历时间: 2026-09-04T04:00:02+0800
8小时前
查看轨道信息
半长轴: 6839.154km
偏心率: 0.0001046
轨道倾角: 53.173°
近地点辐角 83.641°
升交点赤经 81.700°
平近点角 87.269°
近地点: 460.301km
远地点: 461.733km
周期: 93.813分钟
每日圈数: 15.349678
Detailed Information
固有亮度:
5
最大亮度:
2.5
卫星平台:
Starlink v1.5
覆盖范围:
全球
运营商:
太空探索技术公司
运营商所在国:
美国
制造商(研发单位):
太空探索技术公司
制造商所在国:
美国
使用方式:
暂无
Satellite Introduction
星链(Starlink)计划是由太空探索技术公司(SpaceX)提出的一个巨型低轨卫星互联网星座项目,计划在2019年至2024年间在太空搭建由约1.2万颗卫星组成的“星链”网络,其中1584颗将部署在地球上空550千米处的近地轨道,并从2020年开始工作。该卫星仍在工作。
2D Orbit Map
3D Orbit Map
Orbit Altitude Analysis Chart
Orbit Inclination Analysis Chart
Orbit Comprehensive Analysis Chart
View Comprehensive Chart
Conjunction Data List
Event ID Objects TCA Miss Dist (km) Collision Risk Probability Collision Risk Index (CRI) Action
CDM_260904-173305-083005-316521
2026-09-04T
17:33:18+0000
0.135 km
中距离
5.195052E-4 高风险 0.89
CDM_260905-151705-316506-419021
2026-09-05T
15:17:20+0000
1.359 km
极远距离
6.751984E-6 低风险 0.52
CDM_260903-172005-316506-043021
2026-09-03T
17:20:30+0000
1.161 km
极远距离
4.904056E-6 低风险 0.49
CDM_260903-192005-316506-872221
2026-09-03T
19:20:29+0000
2.032 km
极远距离
2.409597E-6 低风险 0.43
CDM_260904-052005-316506-570121
2026-09-04T
05:20:11+0000
2.100 km
极远距离
2.214599E-6 低风险 0.42
CDM_260903-132205-316506-202621
2026-09-03T
13:22:13+0000
1.542 km
极远距离
1.901801E-6 低风险 0.41
CDM_260903-190905-316506-926021
2026-09-03T
19:09:40+0000
2.409 km
极远距离
1.643694E-6 低风险 0.39
CDM_260904-000705-316505-854921
2026-09-04T
00:07:33+0000
2.402 km
极远距离
1.591785E-6 低风险 0.39
CDM_260903-180905-316506-812121
2026-09-03T
18:09:35+0000
2.551 km
极远距离
1.59165E-6 低风险 0.39
CDM_260903-230405-316506-926021
2026-09-03T
23:04:12+0000
2.479 km
极远距离
1.560409E-6 低风险 0.39